GEFSMA_con_cape1000_210.txt.gz
Probability
0 0 0 0 0 0 3 3 3 3 0 0 0 0 0 3 3 6 6 29 61 65 61 45 45 45 39 19 26 23 23 19 23 19 23 29 26 16 13 10 16 6 10
0 0 0 0 0 0 0 3 3 0 0 0 0 0 0 0 3 6 6 23 52 65 68 55 45 45 42 29 29 29 26 26 32 32 19 19 26 13 13 10 10 13 10
0 0 0 0 0 0 3 3 3 3 3 0 0 0 0 0 0 6 6 10 32 52 65 65 61 52 45 35 32 23 23 29 39 48 42 39 32 29 23 16 13 10 16
0 0 0 0 0 0 0 0 0 0 0 0 0 0 0 0 0 3 6 6 10 13 39 48 61 65 48 42 39 35 35 35 32 39 32 35 29 29 29 19 19 13 16
0 0 0 0 0 0 0 0 0 0 3 0 3 3 0 0 0 0 3 3 3 3 10 32 48 55 45 48 58 52 39 32 39 29 23 23 19 35 29 16 19 19 16
3 0 3 0 0 3 0 0 0 0 3 0 0 0 0 0 0 0 0 0 0 3 3 6 23 32 29 45 39 42 42 23 29 26 29 23 13 23 16 19 16 16 13
3 0 0 0 0 3 3 6 6 0 0 0 0 0 0 0 0 0 0 0 0 0 0 3 3 3 6 19 26 35 32 32 35 26 26 19 19 23 16 13 10 13 13
0 3 0 0 3 3 6 3 0 0 0 0 0 0 0 0 0 0 0 0 0 0 0 0 0 0 0 0 3 10 16 13 16 23 29 29 29 13 13 10 10 10 10
0 0 0 0 0 6 6 0 3 0 0 0 0 0 0 0 0 0 0 0 0 0 0 0 0 0 0 0 0 3 13 13 13 13 16 26 19 13 10 10 10 6 6
6 6 0 0 0 3 6 10 0 0 0 0 0 0 0 0 0 0 0 0 0 0 0 0 0 0 0 0 0 0 0 6 13 10 13 19 19 13 10 10 10 3 3
3 10 3 0 3 0 3 0 0 0 0 0 0 0 0 0 0 0 0 0 0 0 0 0 3 0 0 0 0 0 0 0 3 6 3 10 13 10 13 10 10 10 6
0 6 6 3 3 0 0 0 0 0 3 3 0 0 0 0 0 0 0 0 0 0 0 0 0 0 0 0 0 0 0 0 0 0 0 3 10 10 10 10 6 10 6
0 0 13 6 3 0 0 3 3 6 6 6 3 0 0 0 0 0 0 0 0 0 0 0 0 0 0 0 0 0 0 0 0 0 0 0 0 6 10 6 10 10 6
10 10 10 6 6 6 3 3 6 10 10 10 3 0 0 0 0 0 0 0 0 0 0 0 0 0 0 0 0 0 0 0 0 0 0 0 0 0 0 0 3 0 0
10 13 10 10 10 10 10 6 6 10 10 6 6 3 3 0 0 0 0 0 0 0 0 0 0 0 0 0 0 0 0 0 0 0 0 0 0 0 0 0 0 0 0
19 16 13 13 13 13 10 10 10 6 6 3 3 3 3 0 0 0 0 0 0 0 0 0 0 0 0 0 0 0 0 0 0 0 0 0 0 0 0 0 0 0 0
16 13 13 13 13 13 10 3 3 3 3 3 3 3 3 0 0 0 0 0 0 0 0 0 0 0 0 0 0 0 0 0 0 0 0 0 0 0 0 0 0 0 0
10 10 10 6 6 3 3 6 6 6 6 6 3 3 0 0 0 0 0 0 0 0 0 0 0 0 0 0 0 0 0 0 0 0 0 0 0 0 0 0 0 0 0
6 6 6 6 3 3 3 3 3 6 6 3 3 3 0 0 0 0 0 0 0 0 0 0 0 0 0 0 0 0 0 0 0 0 0 0 0 0 0 0 0 0 0
6 3 3 3 3 3 3 3 3 3 3 3 3 3 0 0 0 0 0 0 0 0 0 0 0 0 0 0 0 0 0 0 0 0 0 0 0 0 0 0 0 0 0
3 3 3 3 3 3 3 6 6 6 6 6 3 3 0 0 0 0 0 0 0 0 0 0 0 0 0 0 0 0 0 0 0 0 0 0 0 0 0 0 0 0 0
0 0 0 3 3 3 3 3 3 3 3 3 3 6 3 0 0 0 0 0 0 0 0 0 0 0 0 0 0 0 0 0 0 0 0 0 0 0 0 0 0 0 0
3 3 3 3 3 3 3 3 3 3 3 3 3 3 3 0 0 3 0 0 0 0 0 0 0 0 0 0 0 0 0 0 0 0 0 0 0 0 0 0 0 0 0
3 3 3 3 3 3 3 3 3 3 3 3 3 3 3 3 0 0 3 3 0 0 0 0 0 0 0 0 0 0 0 0 0 0 0 0 0 0 0 0 0 0 0
0 3 3 3 3 3 3 3 3 3 3 3 3 3 3 3 0 0 0 0 0 0 0 0 0 0 0 0 0 0 0 0 0 0 0 0 0 0 0 0 0 0 0
0 0 0 0 0 3 3 0 0 3 0 0 0 0 0 0 0 0 0 0 0 0 0 0 0 0 0 0 0 0 0 0 0 0 0 0 0 0 0 0 0 0 0

GEFSMA_con_cape1000_216.txt.gz
Probability
48 39 52 52 35 35 32 35 32 32 29 19 13 6 10 10 10 6 29 35 45 48 42 39 48 45 32 26 23 23 19 10 13 23 19 19 13 10 10 6 6 6 10
58 48 48 58 39 32 29 35 35 35 23 19 13 10 10 10 16 19 13 35 45 48 58 52 52 48 29 29 26 35 32 19 13 16 23 16 16 13 10 10 10 6 6
68 52 48 52 42 48 45 42 55 35 35 29 29 16 16 23 16 29 16 35 48 42 55 61 58 42 32 29 23 26 29 35 29 19 6 13 19 13 19 13 13 6 6
68 77 48 35 55 48 48 65 45 35 32 35 35 26 26 32 29 23 19 32 52 42 39 42 42 39 42 35 32 29 35 29 29 26 19 23 16 23 16 13 13 10 10
52 68 65 61 58 52 45 35 48 45 39 39 26 42 35 39 32 23 32 16 32 35 39 52 42 39 35 39 39 39 26 23 32 26 23 23 23 16 16 10 13 13 10
61 68 68 68 48 52 68 71 77 71 65 65 13 19 19 35 29 32 29 26 29 23 23 23 45 42 26 35 29 23 19 16 19 13 16 16 10 13 16 6 3 6 6
65 74 52 77 71 65 65 42 65 52 55 65 42 32 29 19 26 39 29 26 16 16 16 16 26 35 39 23 23 32 23 16 19 13 19 16 13 10 19 10 6 3 3
81 55 77 68 68 87 81 77 77 68 45 45 55 39 32 42 35 13 23 23 19 23 16 10 26 39 29 39 10 13 19 19 19 19 26 19 19 16 10 10 6 3 0
74 77 74 74 74 65 71 77 74 68 55 55 48 42 52 42 42 29 23 19 23 23 23 23 19 23 23 29 23 3 10 16 16 16 13 16 13 10 6 6 10 6 3
71 71 74 68 71 52 71 58 58 61 65 55 58 55 42 48 32 26 35 23 29 23 23 10 13 16 13 13 16 6 6 6 13 10 10 13 13 6 6 6 6 10 6
68 65 65 68 71 68 71 68 71 68 55 52 55 52 45 52 32 32 29 35 32 19 16 19 16 13 10 13 16 10 3 0 3 6 6 6 10 6 6 6 6 6 6
61 65 52 68 61 65 74 71 71 65 68 65 48 39 42 48 42 35 26 26 19 16 10 13 16 13 16 16 10 0 0 0 0 0 3 3 3 3 6 6 6 6 6
58 65 52 61 58 58 55 68 61 52 45 52 45 45 39 42 45 32 32 19 16 16 3 6 6 6 10 13 13 0 0 0 0 0 0 0 0 0 0 3 6 10 10
52 58 58 61 55 52 45 42 42 48 52 48 39 48 48 42 35 35 32 19 16 19 10 3 6 3 6 6 10 0 3 0 0 0 0 0 0 0 0 0 0 0 3
58 61 52 52 48 32 35 32 35 42 39 35 39 39 39 39 39 39 32 32 26 16 10 6 0 0 6 13 3 10 10 0 0 0 0 0 0 0 0 0 0 0 0
61 52 45 42 29 26 26 29 26 29 29 29 32 35 39 32 35 39 29 26 26 23 16 13 6 3 3 0 3 10 10 3 0 0 0 0 0 0 0 0 0 0 0
55 48 45 35 32 26 26 26 23 19 26 26 26 26 26 19 26 23 26 26 16 19 19 10 6 0 3 0 3 6 6 10 3 0 0 0 0 0 0 0 0 0 0
52 52 35 29 26 26 26 23 23 19 19 19 16 16 16 13 23 23 23 19 19 13 10 6 6 10 6 0 6 10 3 3 3 0 0 0 0 0 0 0 0 0 0
39 35 32 26 19 19 19 23 19 19 16 16 10 16 16 19 19 19 19 16 16 10 13 6 6 10 6 6 10 13 6 13 0 0 0 0 0 0 0 0 0 0 0
39 32 23 16 16 13 10 10 13 13 6 6 10 10 13 13 13 13 13 16 16 19 13 10 6 10 6 3 3 3 6 10 3 0 0 0 0 0 0 0 0 0 0
32 29 16 13 13 10 10 6 6 6 6 6 6 10 10 3 3 6 10 13 13 13 13 3 3 3 3 6 3 3 0 3 6 0 0 0 0 0 0 0 0 0 0
26 23 13 10 10 10 3 3 3 6 6 6 6 6 3 3 3 3 3 3 3 6 6 6 3 3 3 3 3 3 0 0 0 0 0 0 0 0 0 0 0 0 0
13 13 10 6 6 6 0 0 0 6 10 10 10 10 3 3 3 6 3 0 0 0 0 6 6 6 6 3 3 3 3 0 0 0 0 0 0 0 0 0 0 0 0
19 13 10 6 10 6 3 0 0 6 10 10 10 3 3 3 0 0 0 6 3 3 3 3 3 6 6 6 6 3 3 3 0 0 0 0 0 0 0 0 0 0 0
19 16 10 10 6 6 3 0 0 10 6 3 3 0 0 0 0 0 0 0 0 3 0 0 0 0 0 0 0 3 3 3 3 0 0 0 0 0 0 0 0 0 0
19 16 13 6 6 6 3 0 0 0 3 0 0 0 0 0 0 0 0 0 0 0 0 3 0 0 0 0 0 0 3 3 3 3 3 0 0 0 0 0 0 0 0

GEFSMA_con_cape1000_222.txt.gz
Probability
84 74 74 84 74 77 77 81 65 65 48 42 26 13 13 23 19 16 19 42 58 55 42 42 39 35 26 16 16 19 16 16 23 32 29 10 10 10 10 10 10 10 10
84 84 77 87 81 84 84 87 71 74 61 65 45 35 29 19 39 29 26 35 45 58 58 52 39 42 39 35 29 23 19 16 23 29 23 19 19 6 6 10 13 16 13
87 87 90 90 90 94 90 94 77 81 68 58 61 48 45 42 48 52 35 42 39 55 71 71 52 52 42 39 39 29 29 23 19 19 16 19 16 16 16 10 10 6 10
81 90 87 87 97 97 97 94 90 74 74 74 68 68 65 68 58 58 58 58 35 26 29 58 65 61 45 39 32 26 39 35 39 26 26 19 23 26 16 13 16 13 10
77 87 90 90 84 81 87 65 74 84 77 74 58 68 65 58 58 35 42 35 32 39 23 29 58 55 42 32 39 35 39 35 29 26 16 16 19 23 26 19 23 19 10
90 87 97 97 84 87 87 84 81 81 77 74 45 35 48 55 48 45 45 39 32 23 26 13 23 23 35 42 42 35 32 35 32 26 23 23 19 23 19 19 16 13 10
90 94 94 94 90 87 90 81 81 74 68 68 61 45 48 39 39 39 42 42 23 19 19 29 23 10 10 23 32 39 32 26 23 23 23 26 19 23 13 10 13 13 10
94 77 90 90 90 90 90 87 87 84 71 65 58 42 26 39 32 19 35 35 16 23 19 16 26 32 19 13 6 26 32 26 23 19 16 19 23 16 19 13 10 6 6
74 84 84 87 87 87 87 87 77 71 65 58 55 58 48 35 35 39 42 19 23 26 16 19 19 26 23 13 13 6 19 19 23 23 19 23 19 13 10 10 10 6 0
77 81 84 84 84 81 84 77 74 65 61 52 55 61 52 48 32 26 35 29 19 23 19 10 13 23 16 13 16 10 10 16 13 16 13 13 13 10 6 6 6 3 3
84 77 81 84 84 81 74 74 65 65 71 61 58 58 52 45 35 29 16 23 23 16 19 16 13 13 16 13 13 6 6 6 3 10 13 13 10 6 6 6 6 6 3
84 81 81 84 81 71 68 71 68 65 61 61 58 52 52 52 52 39 23 19 10 16 19 19 13 16 13 16 10 6 3 3 0 0 0 6 6 3 3 6 6 6 3
74 81 74 74 77 68 65 68 65 61 61 61 61 58 45 42 45 42 23 13 10 13 13 16 13 10 10 13 13 3 0 0 0 0 0 0 0 0 0 0 3 6 3
61 65 65 68 71 61 52 65 58 48 48 48 42 45 45 45 48 45 35 23 13 10 13 10 16 10 10 6 6 0 0 0 0 0 0 0 0 0 0 0 0 0 0
65 65 65 61 61 65 52 55 52 48 45 35 39 45 42 42 42 42 32 26 16 13 10 13 13 13 6 3 0 0 0 0 0 0 0 0 0 0 0 0 0 0 0
61 61 65 58 61 55 45 45 39 26 29 29 29 32 35 32 35 35 35 29 23 19 10 13 10 10 10 3 0 10 6 0 0 0 0 0 0 0 0 0 0 0 0
61 55 55 55 52 48 35 26 26 23 26 23 23 19 29 32 32 32 35 29 29 19 10 13 6 10 13 10 3 6 6 0 0 0 0 0 0 0 0 0 0 0 0
65 58 55 55 48 35 26 19 19 19 23 26 26 26 23 19 26 26 29 29 26 29 10 10 6 13 13 10 10 3 0 0 0 0 0 0 0 0 0 0 0 0 0
68 61 55 45 29 26 26 19 19 19 19 16 19 19 19 13 19 23 29 26 29 16 10 10 10 10 13 3 3 3 0 0 0 0 0 0 0 0 0 0 0 0 0
65 65 39 35 23 23 16 13 10 10 13 13 16 13 13 16 13 13 13 16 19 16 13 13 10 6 6 6 3 3 0 0 0 0 0 0 0 0 0 0 0 0 0
55 52 48 39 16 13 6 10 6 6 10 10 13 13 13 13 6 6 10 10 6 6 3 3 3 3 6 3 3 3 3 3 0 0 0 0 0 0 0 0 0 0 0
48 39 35 26 16 6 3 3 6 6 10 10 13 13 13 6 0 0 0 0 3 6 3 3 3 3 0 0 0 3 3 3 3 3 0 0 0 0 0 0 0 0 0
45 42 35 26 16 6 3 0 3 6 6 6 10 10 6 0 0 0 0 0 0 0 0 0 3 3 3 0 3 3 0 3 3 6 3 3 3 0 0 0 0 0 0
42 42 35 29 19 6 6 0 0 6 6 6 10 10 6 6 0 0 0 0 3 0 0 0 3 3 3 3 3 0 0 0 0 3 3 3 0 0 0 0 0 0 0
45 39 32 32 26 6 6 0 0 6 6 6 6 6 6 6 0 0 0 3 3 0 0 0 0 0 0 0 0 0 0 0 0 0 0 3 0 0 0 0 0 0 0
35 35 32 29 26 13 6 0 0 6 6 6 6 6 3 0 0 0 0 3 3 0 0 0 0 0 0 0 0 0 0 0 0 0 0 0 0 0 0 0 0 0 0

GEFSMA_con_cape1000_228.txt.gz
Probability
6 3 3 0 0 0 0 3 0 0 0 3 3 0 3 3 0 3 6 52 68 68 52 52 48 35 32 23 23 32 32 19 26 32 26 26 23 6 6 6 10 6 6
10 6 3 0 0 0 3 0 0 0 0 0 0 3 0 0 0 3 6 23 68 71 68 58 58 48 45 39 32 32 32 26 29 29 29 32 32 23 10 6 10 13 16
6 3 3 0 0 3 0 0 0 0 0 0 0 0 0 3 3 3 3 3 16 58 74 71 71 58 48 45 42 32 32 26 29 29 26 26 19 19 16 10 10 10 10
0 3 3 3 3 0 0 0 0 0 3 3 0 0 3 0 0 0 3 3 3 3 19 39 52 58 35 39 39 39 26 23 26 23 16 19 13 13 16 19 16 13 10
10 3 6 3 3 0 0 6 0 3 3 0 0 0 0 3 6 6 0 0 3 6 3 3 42 42 32 26 35 32 35 29 32 26 23 23 10 6 13 13 16 10 10
19 3 0 3 3 0 0 3 0 0 0 0 0 0 0 0 0 0 3 0 0 0 3 3 10 19 39 45 42 39 35 32 32 26 19 23 10 16 13 16 10 6 6
19 13 6 6 3 3 3 6 3 0 0 0 0 0 0 0 0 0 0 0 0 0 0 0 3 3 3 32 35 39 39 29 29 26 16 19 16 13 6 16 3 6 6
19 23 6 6 10 6 3 6 6 6 3 3 3 0 0 0 0 0 3 0 0 0 0 0 0 0 0 3 3 29 39 35 32 23 19 29 23 16 16 10 6 0 3
19 23 16 16 13 13 13 10 13 6 10 3 0 3 0 0 0 0 0 0 0 0 0 0 0 0 0 0 3 3 13 26 26 23 23 23 16 10 10 6 0 0 3
26 23 19 16 19 19 16 19 13 10 13 13 6 3 3 0 3 3 0 0 0 0 0 0 0 0 0 0 0 3 3 3 16 19 19 16 13 6 6 3 0 0 0
29 32 32 26 23 16 19 23 16 13 13 13 10 6 6 3 3 3 3 0 0 3 3 0 0 0 0 0 0 0 3 3 3 3 10 13 10 6 6 6 3 3 0
23 32 26 19 16 19 19 23 16 13 13 13 13 6 6 6 6 3 3 3 3 3 3 3 3 3 0 0 0 0 0 0 3 3 3 3 0 3 3 3 3 6 3
23 26 32 19 23 19 19 13 13 13 10 10 13 13 10 6 6 6 6 3 3 3 3 3 3 3 3 0 0 0 3 0 0 0 0 0 0 0 0 3 3 3 0
26 23 23 23 19 23 23 13 13 10 10 10 13 13 13 6 6 10 3 3 3 3 3 3 0 0 0 0 0 0 0 0 0 0 0 0 0 0 0 0 0 0 0
26 23 23 19 16 19 19 19 13 13 13 13 10 10 6 6 6 6 10 3 3 3 3 0 0 0 0 0 0 0 0 0 0 0 0 0 0 0 0 0 0 0 0
29 26 23 23 19 16 16 16 13 13 13 13 10 6 6 6 6 6 3 3 3 3 3 3 0 0 0 3 0 0 0 0 0 0 0 0 0 0 0 0 0 0 0
26 23 19 13 13 10 10 10 13 6 6 6 6 6 3 3 3 0 0 3 3 3 3 3 3 0 0 0 0 0 0 0 0 0 0 0 0 0 0 0 0 0 0
19 23 16 10 10 6 6 3 3 6 6 3 3 3 3 0 0 0 0 0 3 3 3 3 3 0 0 0 0 0 0 0 0 0 0 0 0 0 0 0 0 0 0
13 16 10 13 10 10 6 3 3 6 6 3 3 3 3 0 0 0 0 0 0 0 0 0 3 3 0 0 0 0 0 0 0 0 0 0 0 0 0 0 0 0 0
16 13 10 10 6 6 6 6 3 6 6 3 3 3 0 0 0 0 0 0 0 0 0 0 0 0 0 0 0 0 0 0 0 0 0 0 0 0 0 0 0 0 0
23 19 10 10 10 6 6 6 6 6 6 6 3 0 0 0 0 0 0 0 0 0 0 0 0 0 0 0 0 0 0 0 0 0 0 0 0 0 0 0 0 0 0
19 16 10 10 6 6 6 6 6 6 6 3 3 0 0 0 3 0 0 0 0 0 0 0 0 0 0 0 0 0 0 0 0 0 0 0 0 0 0 0 0 0 0
16 13 10 10 6 6 6 6 0 3 3 3 3 0 0 0 3 0 0 0 0 0 0 0 0 0 0 0 0 0 0 0 0 0 0 0 0 0 0 0 0 0 0
26 16 10 6 3 3 3 3 0 0 0 3 3 3 0 0 0 0 0 0 0 0 0 0 0 0 0 0 0 0 0 0 0 0 0 0 0 0 0 0 0 0 0
23 19 16 6 6 3 3 0 0 0 0 0 3 3 3 0 0 0 0 0 0 0 0 0 0 0 0 0 0 0 0 0 0 0 0 0 0 0 0 0 0 0 0
23 19 19 10 6 6 3 0 0 0 0 0 0 3 0 0 0 0 0 0 0 0 0 0 0 0 0 0 0 0 0 0 0 0 0 0 0 0 0 0 0 0 0

GEFSMA_con_cape1000_234.txt.gz
Probability
0 3 0 0 0 0 0 0 0 0 0 3 3 6 6 6 3 3 3 23 48 52 42 39 42 39 35 35 23 26 26 23 29 29 29 10 13 13 16 6 10 10 6
0 3 0 0 0 0 0 0 0 0 3 6 3 3 6 3 3 3 3 16 26 52 48 45 42 45 45 42 39 35 26 16 23 26 23 23 23 19 10 16 10 10 10
0 0 0 0 0 0 0 0 0 0 3 0 0 0 3 6 3 3 3 10 13 35 45 48 39 32 39 32 35 26 26 26 29 26 26 23 23 19 23 16 13 13 13
0 0 0 0 0 0 0 0 0 0 0 0 0 0 0 10 3 3 3 3 10 16 23 32 42 35 19 26 26 26 26 16 26 26 26 26 19 19 10 16 13 16 6
3 0 0 0 0 0 0 0 0 0 0 0 0 0 0 0 0 0 3 3 3 3 6 10 23 29 23 19 19 19 29 23 23 26 23 16 13 13 10 10 10 6 6
3 0 0 0 0 0 0 0 0 0 0 0 0 0 0 0 0 0 0 3 6 3 6 3 6 13 16 29 26 26 29 26 29 19 19 19 10 13 10 3 6 6 3
3 0 3 0 0 0 0 0 0 0 0 0 0 3 0 0 0 0 3 3 0 0 6 3 3 3 10 13 29 29 26 19 13 29 19 23 13 10 6 6 6 3 6
6 13 0 0 0 0 3 0 0 0 3 3 3 6 0 0 0 0 0 0 0 0 0 0 0 3 3 6 6 6 26 23 16 23 26 23 10 6 6 3 6 3 3
3 10 6 0 0 0 0 0 6 3 3 3 3 3 3 3 0 3 0 0 3 0 0 0 0 0 0 3 3 3 10 16 19 19 23 16 6 3 3 0 3 6 3
13 13 10 6 10 6 6 3 13 3 6 13 3 3 3 3 3 3 3 3 3 3 3 0 3 0 0 0 0 0 0 3 6 16 13 16 13 0 0 0 0 0 0
16 26 23 16 13 10 10 10 13 13 10 13 13 6 3 3 3 3 3 3 3 3 3 3 3 0 0 0 0 0 0 0 3 3 3 10 10 13 3 0 0 0 0
13 19 26 16 10 10 10 13 13 13 13 13 13 13 10 10 6 3 3 6 6 6 3 3 3 3 0 0 0 0 0 0 0 0 3 0 0 3 3 3 0 0 0
16 23 13 13 10 13 13 10 10 10 10 10 13 13 13 10 6 6 10 6 6 6 3 3 3 3 3 3 0 0 0 0 0 0 0 0 0 0 3 3 3 3 0
19 19 16 13 13 16 16 10 10 10 10 10 10 10 10 10 6 10 10 6 6 3 3 3 3 3 3 3 3 0 0 0 0 0 0 0 0 0 0 0 0 0 0
19 19 13 10 10 6 6 6 6 6 6 6 6 6 3 3 3 6 6 6 6 0 0 3 3 3 3 3 3 3 3 0 0 0 0 0 0 0 0 0 0 0 0
19 16 13 13 6 6 6 6 6 6 6 3 3 3 3 3 3 3 3 3 0 0 3 3 0 0 0 0 0 3 3 3 0 0 0 0 0 0 0 0 0 0 0
16 16 6 10 6 6 6 6 6 6 3 3 3 3 3 3 3 3 3 0 0 0 0 0 0 0 0 0 0 3 3 3 0 0 0 0 0 0 0 0 0 0 0
16 10 6 6 6 6 6 6 3 3 3 3 3 3 3 3 3 3 0 0 0 0 0 0 0 0 0 0 0 0 3 0 0 0 0 0 0 0 0 0 0 0 0
16 13 10 10 6 3 3 3 3 3 3 3 3 3 3 3 3 3 3 0 0 0 0 0 0 0 0 0 0 0 0 3 0 0 0 0 0 0 0 0 0 0 0
10 10 6 6 6 3 3 3 3 3 3 3 3 3 3 3 3 3 3 3 3 0 0 0 0 0 0 0 0 0 0 0 0 0 0 0 0 0 0 0 0 0 0
16 6 6 6 6 6 3 3 3 3 3 3 3 6 6 3 3 3 3 3 3 0 0 0 0 0 0 0 0 0 0 0 0 0 0 0 0 0 0 0 0 0 0
19 13 6 6 6 6 3 3 3 6 6 6 6 6 6 3 3 0 0 0 0 0 0 0 0 0 0 0 0 0 0 0 0 0 0 0 0 0 0 0 0 0 0
16 16 16 13 6 6 3 3 3 3 6 6 3 3 3 3 0 0 0 0 0 0 0 0 0 0 0 0 0 0 0 0 0 0 0 0 0 0 0 0 0 0 0
19 13 16 10 13 13 3 3 0 0 3 6 6 6 6 3 0 0 0 0 0 0 0 0 0 0 0 0 0 0 0 0 0 0 0 0 0 0 0 0 0 0 0
19 19 19 10 6 6 0 0 0 0 0 3 3 3 3 3 0 0 0 0 0 0 0 0 0 0 0 0 0 0 0 0 0 0 0 0 0 0 0 0 0 0 0
16 16 16 13 10 10 3 0 0 0 0 3 3 3 0 0 0 0 0 0 0 0 0 0 0 0 0 0 0 0 0 0 0 0 0 0 0 0 0 0 0 0 0

GEFSMA_con_cape1000_240.txt.gz
Probability
35 29 39 35 26 32 32 35 26 26 23 16 10 10 10 13 13 16 32 45 55 48 45 39 39 32 35 39 32 32 26 23 26 29 23 19 10 10 13 6 3 3 10
58 45 52 65 39 35 45 39 26 35 26 19 23 13 16 19 29 35 35 42 45 39 42 42 39 42 39 39 35 32 29 23 32 35 23 26 29 19 13 10 10 6 6
65 58 45 48 39 39 52 58 39 45 48 26 26 26 32 29 29 32 32 32 32 32 35 39 32 32 32 26 29 29 32 35 35 29 29 32 26 29 23 19 16 10 3
61 68 55 45 61 45 42 74 52 52 58 39 39 39 39 58 39 45 39 39 35 29 29 29 32 32 23 26 26 29 29 26 26 29 26 26 23 26 23 19 13 6 6
61 61 71 81 61 55 48 39 48 61 52 55 39 52 45 52 48 39 42 35 35 39 32 32 29 29 23 26 23 26 26 26 23 26 23 19 16 19 13 16 6 10 6
65 68 61 71 58 48 55 71 77 77 65 65 23 35 39 35 42 42 35 35 29 29 29 35 35 32 23 23 26 19 23 19 19 19 23 19 19 23 10 6 6 3 3
65 71 58 77 65 68 65 65 68 68 65 61 52 45 29 23 29 39 32 35 26 29 29 29 39 35 35 23 19 23 19 19 19 23 16 23 23 23 10 3 3 0 3
84 68 77 61 65 74 74 71 71 61 55 55 52 48 26 23 29 16 32 35 23 26 23 13 29 42 39 39 19 16 19 19 16 16 16 13 13 10 10 3 3 0 0
71 84 71 58 65 61 65 68 68 58 52 52 48 55 42 26 29 23 26 19 23 26 23 23 16 26 26 35 29 19 16 19 16 16 13 13 6 10 10 3 3 0 0
74 71 74 65 61 52 58 55 58 55 58 52 48 61 45 39 32 26 23 19 23 23 23 13 16 23 29 35 32 19 16 10 6 10 16 16 13 6 3 3 3 0 0
74 68 68 65 58 55 58 58 58 58 52 52 52 45 45 45 45 39 26 16 13 16 13 19 19 23 19 19 29 19 10 6 6 6 10 10 6 13 6 3 3 0 0
65 71 65 58 52 55 55 55 55 52 52 52 52 48 42 42 39 35 32 29 23 23 19 16 19 19 16 16 10 6 6 3 3 0 3 6 3 6 16 10 6 3 3
65 68 61 65 55 48 45 52 55 52 45 48 48 42 39 42 39 29 26 16 16 16 19 13 16 13 10 13 13 6 6 3 0 0 0 0 0 3 3 3 3 3 3
55 68 65 61 58 45 45 48 35 35 42 35 32 35 35 42 35 29 32 23 23 13 13 10 3 0 6 10 3 0 6 6 3 0 0 0 0 0 0 0 0 0 3
71 68 68 61 58 52 48 48 32 39 39 35 32 32 32 35 39 35 29 26 23 16 16 13 6 0 10 13 3 3 10 6 6 0 0 0 0 0 0 0 0 0 0
71 71 74 65 55 52 48 45 35 35 32 35 39 45 42 39 29 29 32 29 26 26 23 10 6 3 6 3 0 0 6 0 0 0 0 0 0 0 0 0 0 0 0
74 71 71 68 55 48 52 48 39 32 29 32 29 23 23 26 29 29 29 29 26 26 23 13 6 3 3 3 3 3 0 3 0 0 0 0 0 0 0 0 0 0 0
71 71 71 65 58 52 52 52 52 39 32 29 26 19 19 16 19 19 26 23 26 26 23 16 3 3 3 3 3 3 0 0 0 0 0 0 0 0 0 0 0 0 0
68 68 71 65 58 55 52 48 52 35 29 23 23 23 19 16 19 19 26 26 23 13 16 10 3 6 3 3 3 3 0 3 0 0 0 0 0 0 0 0 0 0 0
74 65 65 68 58 45 45 45 39 39 32 23 23 23 16 13 13 19 19 23 13 13 10 6 6 3 3 3 3 3 3 0 0 0 0 0 0 0 0 0 0 0 0
68 71 71 61 55 48 45 45 39 39 35 26 26 23 23 16 10 10 6 16 13 16 6 6 6 3 3 3 3 6 0 0 3 0 0 0 0 6 6 0 0 0 0
68 65 65 55 48 39 29 16 29 29 35 29 23 23 23 13 3 3 3 0 3 13 10 10 6 3 3 3 3 3 3 0 0 0 0 0 3 6 6 6 0 0 0
74 71 58 52 52 32 19 3 3 29 29 32 26 23 19 16 16 16 3 0 0 0 0 13 10 10 10 6 3 3 3 3 3 3 3 3 0 3 3 0 0 0 0
74 68 55 52 52 35 16 3 3 10 26 35 32 23 19 19 16 19 16 13 10 6 3 0 6 10 10 10 10 6 3 6 6 3 0 0 0 0 0 0 0 0 0
65 55 52 52 52 39 16 0 0 13 23 26 26 19 23 19 19 3 13 19 16 13 3 0 0 0 0 0 3 6 3 3 0 0 3 0 0 0 0 0 0 0 0
55 42 39 32 35 39 13 3 0 16 23 23 26 23 16 13 13 0 13 16 16 19 10 6 0 0 0 0 0 0 0 0 0 0 3 0 0 0 0 0 0 0 0

GEFSMA_con_cape1000_246.txt.gz
Probability
68 61 74 77 74 71 58 68 61 52 39 39 39 35 32 29 26 32 35 52 58 61 55 45 35 32 29 29 32 29 35 32 35 35 35 19 10 10 10 16 6 6 13
77 81 84 84 77 74 77 71 68 65 65 61 48 29 29 35 48 42 35 52 55 65 58 55 42 32 32 32 26 26 29 32 32 32 42 39 29 19 13 23 23 16 16
81 81 87 84 81 81 81 77 81 74 71 55 52 55 61 52 45 48 45 45 45 55 52 48 52 42 39 35 32 29 26 32 29 32 32 23 26 23 26 26 23 26 23
84 81 81 84 84 87 90 84 81 84 71 68 68 65 71 68 61 58 45 42 39 29 32 48 48 45 32 35 29 32 29 29 32 35 35 26 26 23 26 19 16 19 16
84 84 81 77 84 90 81 65 84 84 77 74 71 74 68 65 61 48 48 42 39 32 32 39 48 42 32 32 29 32 29 29 29 23 26 26 26 23 19 16 16 16 13
84 84 84 84 84 87 84 87 84 81 74 74 52 55 71 65 61 61 55 39 39 35 32 26 32 35 35 42 42 32 29 32 26 23 19 19 23 19 19 16 13 16 10
84 90 84 90 84 87 84 74 81 77 74 71 61 65 61 55 58 61 52 42 26 32 26 29 29 26 23 35 35 42 39 23 16 16 16 19 19 23 16 10 10 6 3
87 74 90 84 87 90 90 87 84 84 74 74 74 61 55 58 61 35 48 45 26 32 26 19 26 23 29 26 19 29 35 26 19 16 16 19 19 19 13 6 10 10 3
90 94 90 87 90 84 84 87 84 81 74 71 68 71 68 45 48 48 42 35 26 35 32 26 23 23 23 29 23 13 19 19 23 16 19 19 13 10 10 3 3 6 3
84 84 77 81 81 81 87 77 77 81 81 74 74 71 65 74 55 42 45 42 42 29 29 23 23 23 26 29 23 13 16 13 19 13 16 19 19 13 10 10 6 3 3
87 81 77 77 74 74 74 74 77 71 77 74 74 71 68 65 61 52 35 32 32 29 26 29 26 29 29 29 16 10 10 13 13 16 13 16 19 19 16 13 6 6 10
87 84 84 81 77 77 74 74 74 71 71 74 81 68 65 68 58 58 48 32 26 26 26 23 23 26 26 26 3 3 10 6 6 3 13 16 13 16 19 13 13 13 6
84 84 81 84 77 71 68 71 74 71 65 65 65 68 65 68 58 48 48 32 26 23 26 23 26 19 23 19 6 3 3 3 3 0 0 6 10 10 6 6 6 6 13
81 77 74 74 68 65 48 65 68 65 58 65 48 58 71 55 58 42 45 39 29 29 23 19 16 19 19 16 6 3 3 3 0 0 0 0 0 0 0 0 3 3 3
77 84 77 74 65 58 55 65 65 58 61 68 61 58 58 55 48 48 42 52 32 19 16 23 19 19 16 10 6 6 6 6 3 0 0 0 0 0 0 0 0 0 0
81 81 74 71 68 61 48 55 55 61 55 58 55 55 55 52 52 52 42 52 52 35 16 23 23 16 10 6 3 3 3 3 0 0 0 0 0 0 0 0 0 0 0
84 81 77 74 68 61 55 58 52 55 52 48 52 45 39 52 48 55 48 45 39 39 26 23 19 19 13 6 3 6 3 6 3 3 0 0 0 0 0 0 0 0 0
87 77 84 81 71 65 68 61 55 55 55 58 45 45 42 35 55 58 45 39 35 35 29 23 16 6 13 10 6 3 3 3 3 3 0 0 0 0 0 0 0 0 0
87 84 81 74 74 68 68 61 61 58 52 48 48 48 42 42 55 52 58 42 42 26 35 26 16 19 6 10 10 6 3 6 3 3 0 0 0 0 0 0 0 0 0
84 84 81 74 74 71 58 55 55 48 48 52 48 35 39 32 35 35 35 48 39 39 35 29 13 10 3 6 3 3 3 6 3 3 3 0 0 0 0 0 0 0 0
77 77 81 71 68 65 58 52 52 45 48 52 52 48 32 32 29 26 19 29 35 39 32 29 16 6 3 3 3 3 3 3 3 3 3 3 3 3 3 0 0 0 0
77 77 77 68 61 48 35 32 42 45 48 48 55 52 39 26 16 10 6 6 6 16 29 26 26 13 13 3 3 3 3 3 3 3 3 3 0 3 3 3 0 0 0
77 77 74 71 58 42 26 19 23 35 52 45 45 52 35 19 19 19 13 6 3 3 3 6 13 13 19 13 6 3 3 3 6 6 3 3 3 3 3 0 0 0 0
81 77 77 74 61 39 19 10 10 26 42 42 39 39 42 39 16 19 23 19 19 10 6 6 10 10 10 23 13 13 6 6 6 6 3 3 3 3 3 0 0 0 0
81 77 74 68 58 35 13 10 0 19 35 35 39 32 39 39 19 13 13 19 19 16 6 3 3 3 3 3 3 3 6 6 3 3 6 3 3 3 3 3 0 0 0
77 74 65 68 65 52 16 6 0 19 19 23 29 32 16 16 13 6 10 16 19 19 19 6 3 3 3 3 0 0 6 3 3 3 3 6 3 3 3 3 0 0 0